Date String (YYYY-MM-DD hh:mm:ss) UTC,Instrument flags,Ambient pressure (hPa),Sample flow (lpm),Bypass flow (lpm),Sample temperature (°C),Ambient temperature (°C),ASC tube jacket temperature (°C),LED temperature (°C),Box temperature (°C),Sample RH (%),Span deviation,Mass concentration (μg/m³),Mass concentration (μg/m³),Mass concentration (μg/m³)
DateTimeUTC,F1_M11,P_M11,Q1_M11,Q2_M11,T1_M11,T2_M11,T3_M11,T4_M11,T5_M11,U1_M11,ZSPAN_M11,X0_M11,X2_M11,X1_M11
2022-12-13 08:00:00,,0809.7,4.98,0.00,22.4,20.9,00.0,31.3,24.2,13.3,0000.1,0012.22,0008.32,0007.66
2022-12-13 08:01:00,,0809.7,5.01,0.00,22.4,20.8,00.0,31.3,24.2,13.2,-000.2,0012.28,0008.28,0007.65
2022-12-13 08:02:00,,0809.8,5.01,0.00,22.4,20.8,00.0,31.3,24.2,13.2,-000.2,0012.48,0008.27,0007.63
2022-12-13 08:03:00,,0809.8,5.00,0.00,22.4,20.7,00.0,31.3,24.2,13.1,-000.5,0012.62,0008.29,0007.61
2022-12-13 08:04:00,,0810.0,4.97,0.00,22.4,20.7,00.0,31.3,24.2,13.0,-000.6,0012.73,0008.29,0007.60
2022-12-13 08:05:00,,0809.9,5.01,0.00,22.4,20.7,00.0,31.3,24.2,12.9,-000.5,0013.30,0008.35,0007.60
2022-12-13 08:06:00,,0809.8,5.01,0.00,22.3,20.7,00.0,31.2,24.2,12.9,-000.7,0013.29,0008.36,0007.59
2022-12-13 08:07:00,,0809.8,5.01,0.00,22.3,20.7,00.0,31.2,24.1,12.8,-000.7,0013.36,0008.35,0007.57
2022-12-13 08:08:00,,0809.9,4.97,0.00,22.3,20.8,00.0,31.2,24.1,12.7,-000.9,0013.67,0008.35,0007.56
2022-12-13 08:09:00,,0809.9,5.01,0.00,22.3,20.8,00.0,31.2,24.1,12.7,-001.5,0013.93,0008.38,0007.54
2022-12-13 08:10:00,,0809.9,5.01,0.00,22.3,20.8,00.0,31.2,24.1,12.8,-001.5,0014.49,0008.45,0007.55
2022-12-13 08:11:00,,0810.0,5.00,0.00,22.3,20.8,00.0,31.2,24.1,12.8,-001.3,0015.16,0008.52,0007.57
2022-12-13 08:12:00,,0810.0,4.99,0.00,22.3,20.8,00.0,31.2,24.1,12.8,-001.5,0015.80,0008.54,0007.57
2022-12-13 08:13:00,,0810.0,5.02,0.00,22.3,20.8,00.0,31.2,24.1,12.8,-001.4,0015.86,0008.62,0007.58
2022-12-13 08:14:00,,0810.0,5.02,0.00,22.3,20.8,00.0,31.2,24.1,12.8,-000.8,0016.84,0008.68,0007.59
2022-12-13 08:15:00,,0809.9,4.97,0.00,22.3,20.8,00.0,31.2,24.1,12.8,-000.4,0017.79,0008.72,0007.59
2022-12-13 08:16:00,,0809.9,5.02,0.00,22.3,21.0,00.0,31.1,24.2,12.7,-000.5,0018.16,0008.69,0007.60
2022-12-13 08:17:00,,0809.9,4.98,0.00,22.4,21.8,00.0,31.1,24.3,12.7,-000.8,0018.52,0008.71,0007.57
2022-12-13 08:18:00,,0809.9,5.04,0.00,22.5,22.4,00.0,31.2,24.5,12.6,-000.6,0019.08,0008.72,0007.55
2022-12-13 08:19:00,,0809.9,4.99,0.00,22.5,22.2,00.0,31.2,24.5,12.5,-000.4,0019.16,0008.74,0007.53
2022-12-13 08:20:00,,0809.9,4.99,0.00,22.5,21.9,00.0,31.2,24.4,12.5,0000.1,0019.22,0008.74,0007.50
2022-12-13 08:21:00,,0809.9,5.02,0.00,22.5,21.7,00.0,31.2,24.4,12.4,-000.1,0019.09,0008.66,0007.45
2022-12-13 08:22:00,,0809.8,4.97,0.00,22.5,21.5,00.0,31.3,24.4,12.4,-000.4,0018.65,0008.59,0007.41
2022-12-13 08:23:00,,0809.8,5.02,0.00,22.5,21.4,00.0,31.3,24.3,12.4,0000.2,0017.86,0008.54,0007.37
2022-12-13 08:24:00,,0809.9,4.98,0.00,22.5,21.3,00.0,31.3,24.4,12.4,0000.1,0017.69,0008.44,0007.32
2022-12-13 08:25:00,,0809.9,5.01,0.00,22.5,21.2,00.0,31.3,24.4,12.3,-000.1,0017.49,0008.32,0007.26
2022-12-13 08:26:00,,0809.9,5.02,0.00,22.5,21.2,00.0,31.3,24.3,12.3,-000.3,0016.76,0008.25,0007.21
2022-12-13 08:27:00,,0809.9,4.97,0.00,22.5,21.1,00.0,31.3,24.4,12.3,-000.4,0016.53,0008.21,0007.15
2022-12-13 08:28:00,,0810.0,5.01,0.00,22.5,21.1,00.0,31.3,24.3,12.3,-000.1,0016.67,0008.15,0007.12
2022-12-13 08:29:00,,0810.0,5.01,0.00,22.5,21.1,00.0,31.3,24.3,12.3,-000.5,0016.64,0008.06,0007.07
2022-12-13 08:30:00,,0809.8,4.98,0.00,22.5,21.0,00.0,31.3,24.3,12.3,-000.9,0016.29,0007.95,0007.03
2022-12-13 08:31:00,,0809.7,5.01,0.00,22.5,21.0,00.0,31.3,24.3,12.2,-001.3,0016.02,0007.87,0006.99
2022-12-13 08:32:00,,0809.7,5.02,0.00,22.4,21.0,00.0,31.3,24.3,12.2,-001.2,0015.45,0007.80,0006.95
2022-12-13 08:33:00,,0809.7,4.98,0.00,22.4,21.0,00.0,31.3,24.3,12.1,-001.3,0015.11,0007.72,0006.89
2022-12-13 08:34:00,,0809.7,5.01,0.00,22.4,21.0,00.0,31.3,24.3,12.1,-001.5,0014.91,0007.67,0006.84
2022-12-13 08:35:00,,0809.7,5.02,0.00,22.4,21.0,00.0,31.2,24.3,12.1,-001.7,0014.67,0007.57,0006.79
2022-12-13 08:36:00,,0809.7,4.97,0.00,22.4,21.0,00.0,31.2,24.3,12.0,-002.1,0013.77,0007.50,0006.74
2022-12-13 08:37:00,,0809.7,5.01,0.00,22.4,21.0,00.0,31.2,24.3,12.1,-002.1,0012.99,0007.40,0006.68
2022-12-13 08:38:00,,0809.7,5.02,0.00,22.4,21.0,00.0,31.2,24.2,12.1,-002.2,0012.84,0007.35,0006.65
2022-12-13 08:39:00,,0809.8,4.97,0.00,22.4,21.0,00.0,31.3,24.3,12.1,-002.4,0012.10,0007.27,0006.61
2022-12-13 08:40:00,,0809.8,5.01,0.00,22.4,21.0,00.0,31.3,24.2,12.1,-002.3,0011.67,0007.23,0006.58
2022-12-13 08:41:00,,0809.8,5.02,0.00,22.4,20.9,00.0,31.2,24.2,12.2,-002.2,0012.21,0007.23,0006.58
2022-12-13 08:42:00,,0809.8,4.97,0.00,22.4,20.9,00.0,31.2,24.2,12.2,-002.2,0012.79,0007.22,0006.56
2022-12-13 08:43:00,,0809.8,5.02,0.00,22.4,21.3,00.0,31.2,24.3,12.1,-002.1,0012.74,0007.17,0006.54
2022-12-13 08:44:00,,0809.9,4.98,0.00,22.5,22.2,00.0,31.2,24.5,12.0,-001.8,0012.71,0007.15,0006.52
2022-12-13 08:45:00,,0809.9,5.04,0.00,22.6,22.4,00.0,31.3,24.6,11.9,-001.7,0012.56,0007.07,0006.49
2022-12-13 08:46:00,,0810.0,4.98,0.00,22.6,22.1,00.0,31.3,24.6,11.9,-001.3,0012.45,0007.05,0006.46
2022-12-13 08:47:00,,0810.0,5.01,0.00,22.6,21.9,00.0,31.3,24.5,11.9,-000.8,0012.79,0007.04,0006.44
2022-12-13 08:48:00,,0810.0,5.00,0.00,22.6,21.7,00.0,31.3,24.5,11.9,-000.4,0013.28,0007.05,0006.45
2022-12-13 08:49:00,,0809.9,5.02,0.00,22.6,21.5,00.0,31.3,24.4,11.9,-000.2,0013.02,0007.02,0006.46
2022-12-13 08:50:00,,0809.9,4.97,0.00,22.6,21.4,00.0,31.3,24.4,11.9,-000.2,0012.73,0007.04,0006.49
2022-12-13 08:51:00,,0810.0,5.02,0.00,22.6,21.3,00.0,31.3,24.4,11.9,0000.0,0012.56,0007.05,0006.53
2022-12-13 08:52:00,,0810.0,4.98,0.00,22.6,21.3,00.0,31.4,24.4,11.9,-000.1,0011.74,0007.05,0006.54
2022-12-13 08:53:00,,0810.0,5.02,0.00,22.6,21.3,00.0,31.4,24.4,11.9,-000.2,0011.36,0007.06,0006.55
2022-12-13 08:54:00,,0810.0,4.99,0.00,22.6,21.2,00.0,31.4,24.4,11.9,-000.5,0011.51,0007.11,0006.58
2022-12-13 08:55:00,,0810.0,5.00,0.00,22.6,21.2,00.0,31.4,24.4,11.9,-000.3,0011.59,0007.15,0006.61
2022-12-13 08:56:00,,0809.9,5.01,0.00,22.6,21.2,00.0,31.4,24.4,11.8,-000.4,0011.58,0007.16,0006.64
2022-12-13 08:57:00,,0809.9,4.97,0.00,22.6,21.2,00.0,31.4,24.4,11.8,-000.3,0011.93,0007.23,0006.66
2022-12-13 08:58:00,,0809.9,5.02,0.00,22.6,21.2,00.0,31.4,24.4,11.9,-000.3,0011.98,0007.26,0006.69
2022-12-13 08:59:00,,0809.9,4.98,0.00,22.6,21.1,00.0,31.4,24.4,11.9,-000.4,0011.33,0007.24,0006.70
